CAPE
0 0 0 0 0 0 0 0 0 0 0 0 0 0 1 0 191 220 388 489 470 411 423 483 552 603 558 906 1325 1377 717 950
0 0 0 0 0 0 0 0 0 0 0 0 0 0 0 0 2 150 210 443 529 659 553 509 560 656 652 790 1259 1368 956 1130
0 0 0 0 0 0 1 0 0 0 0 0 0 0 0 0 0 14 72 346 547 690 800 670 594 630 694 735 974 1094 1193 1163
0 0 0 0 0 0 0 0 0 0 0 0 0 0 0 0 0 0 1 213 555 658 891 937 806 694 753 680 695 993 1058 1397
0 0 0 0 0 0 0 0 9 1 0 0 0 0 0 0 0 0 0 63 429 619 738 930 999 915 757 742 643 668 1091 1199
0 0 0 0 0 0 0 9 1 0 10 4 4 0 7 0 0 0 0 44 173 500 493 769 1029 1224 1128 860 684 544 776 871
0 0 0 0 0 0 0 0 0 0 0 2 2 4 16 1 0 0 0 18 101 310 550 973 1078 1454 1473 1069 1036 739 820 826
2 0 0 0 0 0 0 0 0 0 0 0 0 0 0 0 11 0 0 0 10 88 195 734 1207 1536 1750 1463 1332 1060 1090 983
7 10 0 0 0 0 0 0 0 0 0 0 0 0 0 0 13 1 4 0 2 0 81 157 575 1395 1514 1805 1481 1473 1506 1302
12 18 2 1 0 0 0 0 0 0 0 0 0 0 0 14 595 520 317 79 74 101 62 36 229 523 1121 1557 1880 1840 1641 2073
23 19 4 1 0 0 2 0 0 0 0 0 0 0 0 0 779 602 604 615 564 545 440 399 114 134 810 1262 2183 1951 2231 2087
64 15 11 0 1 29 0 0 0 0 0 0 0 0 0 319 926 715 586 517 614 709 725 775 848 486 356 1065 1534 2129 2356 2287
26 8 12 0 33 0 0 0 0 0 0 0 0 0 15 117 193 125 358 582 730 1014 1014 1171 1318 1001 550 841 1423 2009 2272 2487
14 26 16 8 0 0 0 0 0 1 10 3 135 422 40 0 0 0 9 92 457 1693 1737 1728 1660 1734 1484 959 1552 1867 2257 2396
19 8 12 22 1 1 0 2 0 23 262 471 252 61 0 0 0 0 1 2 196 1641 1998 1084 1064 1694 1822 1028 2063 2078 2300 2470
0 0 1 3 0 8 4 3 15 2 0 0 0 0 0 0 0 2 3 1 1 734 2362 2180 1942 1081 1061 2602 2277 2565 2617 2597
0 1 1 5 9 8 18 27 17 3 4 4 3 1 4 4 0 0 1 0 3 5 98 534 1095 1699 1906 2233 2444 2515 2676 2846
0 1 3 4 6 14 17 4 2 10 0 0 0 11 20 10 0 0 0 0 0 1 2 2 4 22 398 1170 2588 2517 2694 2673
2 6 5 7 6 4 11 18 11 1 0 15 9 8 35 15 10 0 0 0 1 2 1 3 2 2 12 466 1605 2556 2837 3013
CIN
-0 -0 -0 -0 -0 -0 -0 -0 -0 -0 -0 -0 -0 -0 -3 -0 -8 -16 -4 -8 -49 -86 -99 -100 -100 -109 -122 -75 -55 -35 -76 -50
-0 -0 -0 -0 -0 -3 -0 -0 -0 -1 -0 -0 -0 -0 -0 -0 -10 -4 -19 -7 -5 -32 -77 -113 -128 -116 -93 -78 -75 -68 -65 -50
-0 -0 -0 -0 -0 -0 -3 -0 -0 -0 -0 -0 -0 -0 -0 -0 -0 -22 -21 -3 -6 -13 -46 -103 -106 -97 -122 -112 -81 -74 -51 -52
-0 -0 -0 -0 -0 -0 -0 -0 -0 -0 -3 -0 -0 -0 -0 -0 -0 -0 -1 -7 -3 -6 -32 -41 -84 -105 -117 -141 -137 -137 -114 -47
-0 -0 -0 -0 -0 -0 -0 -0 -7 -1 -0 -0 -0 -0 -0 -0 -0 -0 -0 -5 -6 -1 -4 -28 -63 -88 -101 -107 -148 -148 -108 -83
-0 -0 -0 -0 -0 -0 -0 -7 -9 -3 -16 -6 -5 -0 -3 -0 -0 -0 -0 -4 -5 -4 -1 -32 -39 -77 -86 -99 -111 -128 -122 -105
-0 -0 -0 -0 -0 -0 -0 -0 -0 -2 -8 -35 -42 -36 -8 -4 -0 -0 -0 -14 -5 -7 -2 -10 -38 -54 -76 -80 -84 -102 -117 -121
-8 -3 -0 -0 -0 -0 -0 -0 -0 -0 -0 -0 -0 -0 -0 -1 -6 -0 -0 -0 -8 -6 -4 -2 -11 -52 -61 -83 -80 -98 -107 -133
-2 -5 -1 -0 -0 -0 -0 -0 -0 -0 -0 -0 -0 -0 -0 -1 -2 -2 -3 -0 -7 -0 -44 -31 -42 -64 -60 -110 -105 -80 -94 -118
-2 -7 -12 -7 -0 -0 -0 -0 -0 -0 -0 -0 -0 -0 -0 -0 -12 -18 -15 -12 -8 -39 -69 -103 -57 -71 -82 -57 -84 -79 -98 -58
-1 -2 -5 -5 -0 -0 -8 -0 -0 -0 -0 -0 -0 -0 -0 -0 -14 -49 -71 -70 -79 -82 -89 -118 -119 -81 -90 -96 -85 -103 -92 -101
-5 -2 -2 -0 -9 -116 -0 -0 -0 -0 -0 -0 -0 -0 -0 -9 -9 -59 -95 -97 -100 -124 -131 -135 -181 -131 -104 -142 -140 -155 -150 -183
-2 -2 -3 -0 -42 -0 -0 -0 -0 -0 -0 -0 -0 -0 -12 -115 -145 -213 -160 -136 -154 -166 -185 -174 -152 -155 -136 -116 -161 -216 -198 -121
-1 -1 -2 -20 -42 -16 -0 -0 -0 -0 -2 -3 -8 -34 -72 -0 -0 -0 -123 -361 -269 -93 -83 -115 -147 -120 -143 -152 -165 -164 -161 -139
-1 -6 -20 -0 -0 -0 -0 -0 -0 -0 -2 -2 -13 -189 -0 -0 -0 -0 -0 -5 -350 -103 -38 -88 -119 -151 -141 -211 -113 -172 -169 -162
-0 -0 -0 -1 -0 -0 -0 -1 -0 -0 -0 -2 -0 -0 -0 -0 -0 -0 -0 -0 -0 -182 -1 -74 -70 -157 -218 -53 -110 -136 -144 -127
-0 -0 -0 -0 -0 -0 -0 -0 -0 -0 -0 -0 -1 -0 -0 -0 -0 -0 -0 -0 -0 -157 -174 -269 -211 -134 -44 -53 -84 -111 -90 -73
-0 -0 -0 -0 -0 -0 -0 -1 -0 -2 -0 -0 -0 -1 -0 -0 -0 -0 -0 -0 -0 -0 -0 -0 -0 -443 -418 -311 -57 -58 -66 -83
-0 -0 -0 -0 -0 -0 -0 -0 -0 -0 -0 -0 -0 -1 -0 -0 -1 -0 -0 -0 -1 -0 -0 -0 -0 -0 -587 -381 -161 -43 -40 -36
Wind_Speed
21 26 33 32 39 40 47 43 50 42 45 45 35 47 38 36 15 24 20 17 16 18 20 22 23 23 24 20 19 20 20 22
25 28 34 37 35 37 47 55 57 45 47 42 40 41 43 37 29 24 18 17 16 16 19 21 23 22 21 21 20 21 22 23
28 34 38 33 45 44 42 47 57 52 46 32 29 34 40 39 36 32 35 15 18 16 18 19 18 21 25 20 21 22 23 23
36 31 33 44 38 42 49 48 47 55 48 30 25 24 31 39 33 36 31 24 19 16 16 18 19 20 22 23 20 21 23 25
40 41 38 41 41 41 40 49 52 52 53 36 20 23 26 32 35 35 36 27 21 19 18 19 19 18 20 23 24 19 22 23
43 22 29 35 43 44 44 50 53 55 43 42 20 20 22 29 30 35 31 33 25 22 20 19 19 18 18 22 23 19 20 22
43 40 33 35 37 38 46 48 53 53 48 48 36 29 29 24 26 30 32 31 31 26 23 22 21 18 18 19 19 20 21 22
47 39 38 42 41 43 45 49 52 53 56 47 42 37 38 36 29 23 28 28 28 29 30 24 23 21 19 20 20 21 19 21
48 41 42 48 46 45 49 51 52 60 58 50 50 45 43 41 38 39 31 30 27 30 30 31 26 21 20 21 23 20 19 20
43 42 54 44 41 44 51 52 51 56 57 57 56 50 46 40 31 31 28 27 31 32 31 32 31 24 21 20 21 22 21 19
41 45 45 45 41 44 45 57 50 54 56 58 58 56 54 48 32 33 33 33 35 34 35 35 34 30 22 22 20 23 21 23
34 43 53 48 36 29 38 67 52 58 63 61 56 58 56 36 30 33 33 34 36 36 37 37 37 33 24 20 22 23 26 28
38 48 46 42 36 34 52 56 46 55 63 60 59 56 47 36 33 33 34 35 36 39 41 40 38 33 32 24 22 23 23 21
24 27 39 21 31 42 42 45 44 45 39 47 48 34 35 36 34 31 32 33 33 37 40 40 39 37 34 31 23 21 20 21
21 19 26 25 32 38 37 40 45 41 36 35 34 34 34 32 31 30 30 30 29 32 34 33 36 38 36 36 25 22 20 20
5 8 31 34 32 31 31 33 28 33 26 28 30 31 29 27 26 26 26 27 27 26 24 24 29 30 34 30 26 23 20 20
7 12 22 17 22 24 26 23 24 17 18 20 22 22 24 23 22 21 21 21 22 21 20 20 20 21 27 27 27 25 23 21
11 19 21 21 21 21 21 21 19 15 14 17 17 20 18 17 15 16 15 15 17 16 17 19 19 21 23 27 30 27 25 23
4 16 21 20 18 17 13 15 17 16 16 15 18 13 15 13 13 12 12 13 14 15 16 15 15 18 20 24 31 30 27 24
Wind_Direction
265 258 255 256 247 252 257 260 252 252 251 251 248 246 252 235 227 238 197 206 198 192 186 183 183 183 191 202 210 214 208 230
264 262 260 257 259 251 250 248 247 252 247 248 244 246 246 248 256 246 211 204 216 201 192 186 184 185 189 216 214 219 225 229
262 258 256 254 252 253 260 249 245 246 247 255 249 246 248 246 246 250 251 238 234 210 200 196 196 187 184 199 222 226 226 227
260 267 263 254 259 248 247 247 249 245 247 261 265 253 250 248 247 246 246 247 235 224 213 209 200 194 189 187 204 215 227 232
261 262 263 256 253 252 255 250 247 242 242 252 266 258 260 254 249 248 247 241 238 235 224 216 208 207 194 190 190 213 225 225
255 276 275 259 248 248 250 247 245 243 246 239 251 262 267 257 254 246 248 242 237 237 230 225 219 212 203 192 191 210 220 222
263 267 271 262 254 249 247 247 245 242 245 243 254 270 267 274 259 252 248 246 245 240 237 231 231 226 214 199 199 198 223 225
262 263 263 259 256 255 252 248 249 248 246 249 260 269 263 261 259 254 253 254 252 240 245 239 236 235 225 207 197 196 213 219
260 262 260 256 255 256 254 251 249 245 246 252 253 255 257 261 254 252 256 252 255 253 247 247 244 239 234 203 200 205 214 218
263 262 255 259 260 261 257 254 253 251 249 247 248 251 259 273 263 259 259 252 254 255 253 249 248 244 241 230 209 206 207 222
260 259 263 260 261 263 261 250 255 252 249 245 246 249 255 259 260 259 259 260 257 257 255 252 250 249 239 235 219 206 206 205
263 259 257 258 265 276 273 250 255 253 247 244 242 243 244 264 256 256 258 258 258 258 256 253 249 249 244 228 227 210 199 195
214 246 261 267 274 276 255 250 263 266 244 240 238 244 249 255 256 259 260 262 264 260 256 253 250 247 246 236 224 210 207 215
197 208 241 299 277 261 264 264 266 267 238 236 239 248 246 246 253 260 263 266 269 265 258 253 249 246 243 243 229 235 226 219
203 200 266 282 262 266 267 261 259 255 246 244 241 242 244 246 253 260 265 269 274 270 264 255 249 245 242 242 235 228 228 224
154 238 262 256 259 250 247 262 260 252 245 240 236 239 241 246 252 262 269 270 273 271 270 265 258 246 243 238 229 229 228 226
163 223 273 247 239 242 246 249 228 239 240 238 233 234 238 245 251 264 271 275 273 269 272 269 268 257 244 235 232 231 233 230
62 277 277 274 290 261 254 243 245 250 240 237 231 233 236 242 250 264 273 278 276 275 276 275 268 259 253 249 237 232 230 226
199 282 315 303 298 299 254 235 234 232 230 231 231 234 236 242 254 268 277 281 285 279 278 282 274 264 263 254 245 235 228 224